Location: Unspecified
(47.6578°N, 23.5640°E)
Time: 06:25:03
(UTC+02:00)

ISS - Pass Details

Date: 28 December 2017
Orbit: 403 x 407 km, 51.6° (Epoch: 12 December)

Event Time Altitude Azimuth Distance (km) Brightness Sun altitude
Rises 14:55:14 0° 270° (W) 2,324 0.5 11.6°
Enters shadow 15:39:51 -73° 106° (ESE) 12,640 3.6 6.9°
Exits shadow 16:05:32 -51° 338° (NNW) 10,449 3.1 3.8°
Maximum altitude 06:04:33 12° 134° (SE) 1,323 -0.5 -20.7°
